Home   Weather   Bridgetown   Past weeks
Flag for Barbados

Past Weather in Bridgetown, Barbados — Yesterday and Last 2 Weeks

Now
77 °F

Passing clouds.


Feels Like: 79 °F
Forecast: 83 / 78 °F
Wind: 16 mph from East

Location: Grantley Adams

Current Time: Feb 20, 2019 at 6:01:03 am

Latest Report: Feb 20, 2019 at 5:00 am


Visibility: N/A

Pressure: 29.98 "Hg

Humidity: 74%

Dew Point: 68 °F

Location of BridgetownLocation

Past Weather in Bridgetown — Graph

°F

Bridgetown Temperature Yesterday

Maximum temperature yesterday: 84 °F (at 10:00 am)
Minimum temperature yesterday: 73 °F (at 8:00 pm)
Average temperature yesterday: 79 °F

High & Low Weather Summary for the Past Weeks

 TemperatureHumidityPressure
High86 °F (Feb 6, 1:00 pm)100% (Feb 12, 11:00 pm)30.09 "Hg (Feb 12, 11:00 pm)
Low73 °F (Feb 19, 8:00 pm)51% (Feb 10, 10:00 am)29.89 "Hg (Feb 8, 4:00 pm)
Average80 °F70%29.98 "Hg
* Reported Feb 5 5:00 am — Feb 20 5:00 am, Bridgetown. Weather by CustomWeather, © 2019

Note: Actual official high and low records may vary slightly from our data, if they occured in-between our weather recording intervals... More about our weather records

Advertising

Bridgetown Weather History for the Previous 24 Hours

Scroll right to see more
 ConditionsComfort  
Time TempWeatherWind HumidityBarometerVisibility
5:00 am
Wed, Feb 20
77 °FPassing clouds.16 mph74%29.98 "HgN/A
4:00 am77 °FPassing clouds.20 mph69%29.95 "HgN/A
3:00 am77 °FPassing clouds.23 mph74%29.98 "HgN/A
2:00 am77 °FPassing clouds.16 mph65%29.98 "HgN/A
1:00 am75 °FPassing clouds.20 mph78%30.01 "HgN/A
12:00 am75 °FPassing clouds.8 mph78%30.01 "HgN/A
11:00 pm
Tue, Feb 19
75 °FPartly cloudy.14 mph74%30.04 "HgN/A
10:00 pm77 °FPassing clouds.17 mph74%30.04 "HgN/A
9:00 pm77 °FScattered showers. Partly cloudy.20 mph65%30.04 "HgN/A
8:00 pm73 °FScattered showers. Passing clouds.15 mph94%30.01 "HgN/A
7:00 pm75 °FSprinkles. Passing clouds.24 mph83%29.98 "HgN/A
6:00 pm79 °FScattered clouds.18 mph65%29.98 "HgN/A
5:00 pm81 °FScattered clouds.20 mph62%29.95 "HgN/A
4:00 pm81 °FSprinkles. Scattered clouds.18 mph62%29.95 "HgN/A
3:00 pm82 °FScattered clouds.21 mph58%29.95 "HgN/A
2:00 pm84 °FPassing clouds.21 mph58%29.98 "HgN/A
1:00 pm84 °FPassing clouds.22 mph58%30.01 "HgN/A
12:00 pm84 °FScattered clouds.22 mph62%30.04 "HgN/A
11:00 am82 °FPartly sunny.21 mph62%30.07 "HgN/A
10:00 am84 °FScattered clouds.24 mph62%30.07 "HgN/A
9:00 am82 °FPassing clouds.22 mph62%30.07 "HgN/A
8:00 am81 °FPassing clouds.18 mph66%30.01 "HgN/A
7:00 am79 °FScattered clouds.15 mph74%30.01 "HgN/A
6:00 am77 °FPassing clouds.20 mph74%30.01 "HgN/A
Weather by CustomWeather, © 2019

See weather overview